Погода в Мейтхиле

Мьянма     20°53′06″N   95°51′18″E
темп.,
°C
ветер,
м/с
пор.,
м/с
влажн.,
%
обл.,
%
осадки,
мм/ч
давл.,
гПа
погр.,
м
25 мая, ср
ср2500:30+25ююв7117460 0.1 1007840
03:30+25ююв61076100 0.0 1006743
06:30+25ююз61075100 0.1 1007891
09:30+26ююз6866100 0.1 10081052
12:30+25зюз61074100 0.5 1007541
15:30+26зсз4767100 0.1 1004286
18:30+26всв116839 0.1 100552
21:30+25юв247176 0.1 1006157
26 мая, чт
чт2600:30+25ююв49765 0.1 1006329
03:30+25ююв497964 0.0 1005348
06:30+25ююв59805 0.0 1006487
09:30+30ю555533 0.0 10071390
12:30+32юз344499 0.0 10041883
15:30+29юв235647 0.0 1002740
18:30+29вюв346063 0.0 1002303
21:30+28ююв38678 0.6 1004284
27 мая, пт
пт2700:30+25ююв497843 2.9 1003327
03:30+26ююв587649 1.9 1002364
06:30+25ююв58805 1.9 1004384
09:30+30ю66555 0.0 10041120
12:30+34ююз444318 0.0 10021941
15:30+36юз33335 0.0 9992772
18:30+34юв45411 0.0 998222
21:30+31ююз695232 0.0 1001493
28 мая, сб
сб2800:30+28ю610610 0.0 1001504
03:30+26ююв697126 0.0 1001514
06:30+26ю710755 0.0 1002575
09:30+31ю77530 0.0 10031138
12:30+35ююз55390 0.0 10011840
15:30+37юз442935 0.0 9983021
18:30+36юз22312 0.0 99737
21:30+28ю10146693 0.1 1002637
29 мая, вс
вс2900:30+26ю8137797 0.5 1003618
03:30+25ююв7127779 0.1 1002587
06:30+26ююв711726 0.1 1003546
09:30+31ю77536 0.0 10041209
12:30+35ююз654215 0.0 10011888
15:30+37ююз44358 0.0 9992569
18:30+27ю11157261 0.5 1001396
21:30+28ююв71263100 1.3 1003532